Precipitable_Water
1.56 1.53 1.55 1.50 1.40 1.48 1.43 1.43 1.37 1.34 1.38 1.30 1.29 1.34 1.39 1.42 1.48 1.50 1.57 1.64 1.66 1.73 1.84 1.90 1.84 1.89 1.86 1.87 1.91 1.88 1.83 1.79 1.58 1.69 1.80 1.82 1.75 1.72 1.73 1.78 1.86 1.85 1.87
1.58 1.48 1.45 1.47 1.37 1.40 1.42 1.44 1.45 1.36 1.34 1.25 1.24 1.28 1.33 1.36 1.41 1.37 1.34 1.35 1.35 1.42 1.50 1.55 1.64 1.80 1.80 1.83 1.82 1.82 1.81 1.83 1.72 1.62 1.73 1.67 1.61 1.63 1.68 1.74 1.76 1.81 1.79
1.52 1.41 1.45 1.41 1.36 1.38 1.41 1.41 1.45 1.41 1.31 1.24 1.24 1.25 1.26 1.29 1.31 1.32 1.32 1.30 1.30 1.32 1.41 1.44 1.49 1.50 1.49 1.56 1.58 1.56 1.60 1.62 1.62 1.56 1.51 1.64 1.63 1.70 1.66 1.70 1.71 1.71 1.73
1.46 1.43 1.50 1.42 1.43 1.41 1.41 1.40 1.40 1.40 1.33 1.24 1.23 1.24 1.27 1.28 1.29 1.30 1.30 1.27 1.27 1.27 1.30 1.35 1.41 1.45 1.44 1.47 1.51 1.52 1.53 1.50 1.47 1.44 1.45 1.44 1.49 1.52 1.48 1.44 1.38 1.46 1.43
1.37 1.48 1.51 1.51 1.52 1.49 1.45 1.42 1.43 1.40 1.33 1.25 1.20 1.23 1.23 1.21 1.23 1.25 1.26 1.24 1.17 1.12 1.14 1.16 1.23 1.30 1.38 1.42 1.41 1.39 1.40 1.35 1.32 1.29 1.28 1.29 1.29 1.29 1.26 1.30 1.23 1.29 1.30
1.43 1.52 1.56 1.62 1.59 1.51 1.44 1.41 1.41 1.39 1.36 1.23 1.18 1.17 1.17 1.20 1.25 1.25 1.25 1.21 1.21 1.17 1.10 1.10 1.10 1.10 1.15 1.20 1.23 1.27 1.27 1.12 1.04 1.06 1.06 1.05 1.09 1.13 1.15 1.13 1.12 1.08 0.99
1.54 1.59 1.64 1.67 1.63 1.57 1.54 1.44 1.38 1.37 1.38 1.26 1.16 1.14 1.11 1.17 1.24 1.26 1.27 1.24 1.19 1.19 1.17 1.13 1.10 1.07 1.02 1.06 1.11 1.16 1.18 1.20 1.20 1.14 1.05 1.08 1.11 1.18 1.20 1.16 1.17 1.12 1.07
1.61 1.71 1.73 1.73 1.70 1.66 1.62 1.52 1.44 1.39 1.36 1.30 1.16 1.13 1.13 1.15 1.20 1.24 1.26 1.24 1.19 1.18 1.20 1.18 1.12 1.08 1.08 1.00 0.96 0.95 0.95 1.00 1.11 1.12 1.12 1.13 1.18 1.23 1.22 1.19 1.14 1.10 1.13
1.64 1.74 1.79 1.84 1.73 1.71 1.68 1.60 1.51 1.43 1.36 1.35 1.29 1.17 1.13 1.16 1.23 1.28 1.28 1.25 1.19 1.18 1.18 1.17 1.17 1.16 1.15 1.14 1.08 1.00 0.96 0.94 0.96 0.97 0.97 0.99 1.03 1.06 1.15 1.17 1.02 1.00 0.93
1.72 1.69 1.75 1.76 1.74 1.69 1.73 1.67 1.54 1.47 1.40 1.36 1.30 1.28 1.26 1.20 1.27 1.32 1.38 1.30 1.19 1.13 1.13 1.14 1.17 1.20 1.22 1.22 1.13 1.07 0.98 0.95 0.89 0.81 0.79 0.80 0.82 0.80 0.92 1.00 0.94 0.81 0.69
1.63 1.66 1.71 1.76 1.76 1.76 1.71 1.72 1.65 1.49 1.42 1.35 1.33 1.34 1.32 1.30 1.31 1.37 1.41 1.34 1.25 1.20 1.16 1.13 1.11 1.12 1.14 1.14 1.12 1.04 0.92 0.88 0.80 0.77 0.74 0.73 0.68 0.59 0.49 0.56 0.62 0.62 0.61
1.58 1.57 1.58 1.64 1.67 1.67 1.64 1.61 1.59 1.50 1.43 1.29 1.35 1.33 1.36 1.32 1.35 1.32 1.29 1.30 1.30 1.17 1.13 1.09 1.06 1.02 0.98 0.97 0.92 0.85 0.77 0.70 0.60 0.56 0.48 0.44 0.41 0.39 0.42 0.47 0.46 0.44 0.47
1.50 1.46 1.48 1.47 1.47 1.46 1.48 1.48 1.47 1.39 1.34 1.29 1.31 1.30 1.28 1.32 1.36 1.36 1.29 1.25 1.24 1.18 1.11 1.01 0.92 0.84 0.72 0.70 0.63 0.57 0.53 0.48 0.45 0.43 0.41 0.39 0.38 0.40 0.46 0.49 0.51 0.53 0.54
1.40 1.37 1.34 1.34 1.28 1.35 1.41 1.44 1.39 1.29 1.23 1.19 1.22 1.20 1.22 1.28 1.27 1.24 1.19 1.18 1.14 1.07 0.94 0.81 0.74 0.70 0.68 0.62 0.52 0.45 0.41 0.44 0.42 0.40 0.39 0.39 0.42 0.39 0.36 0.39 0.40 0.48 0.49
1.32 1.28 1.23 1.20 1.23 1.28 1.30 1.28 1.24 1.24 1.24 1.18 1.19 1.20 1.15 1.13 1.15 1.14 1.14 1.06 1.02 0.90 0.82 0.73 0.65 0.57 0.51 0.49 0.49 0.47 0.44 0.42 0.39 0.39 0.38 0.37 0.37 0.38 0.36 0.37 0.37 0.39 0.43
1.15 1.14 1.16 1.18 1.21 1.17 1.11 1.10 1.19 1.20 1.21 1.20 1.19 1.15 1.15 1.15 1.14 1.10 1.04 0.97 0.87 0.69 0.62 0.59 0.54 0.53 0.50 0.51 0.50 0.48 0.46 0.45 0.44 0.41 0.37 0.35 0.35 0.33 0.33 0.35 0.35 0.36 0.37
1.14 1.15 1.14 1.10 1.04 1.04 1.05 1.03 0.99 1.05 1.07 1.08 1.06 1.05 1.02 0.96 0.87 0.79 0.76 0.69 0.61 0.51 0.51 0.54 0.53 0.51 0.50 0.49 0.48 0.47 0.45 0.44 0.44 0.42 0.38 0.37 0.36 0.37 0.36 0.35 0.36 0.36 0.37
1.14 1.07 1.01 1.01 0.99 0.92 0.88 0.84 0.75 0.63 0.53 0.51 0.56 0.55 0.54 0.54 0.52 0.49 0.45 0.40 0.42 0.48 0.50 0.52 0.53 0.51 0.49 0.48 0.47 0.46 0.46 0.46 0.46 0.43 0.41 0.41 0.40 0.37 0.38 0.38 0.36 0.36 0.37
1.08 1.07 1.08 1.03 0.96 0.89 0.83 0.73 0.65 0.60 0.57 0.51 0.49 0.48 0.46 0.45 0.44 0.42 0.40 0.41 0.50 0.55 0.56 0.55 0.55 0.52 0.52 0.51 0.49 0.49 0.47 0.47 0.46 0.47 0.47 0.46 0.45 0.45 0.42 0.41 0.43 0.39 0.35
1.05 0.91 0.80 0.72 0.68 0.66 0.71 0.71 0.70 0.65 0.63 0.62 0.57 0.55 0.53 0.50 0.48 0.48 0.50 0.50 0.48 0.52 0.53 0.53 0.55 0.55 0.55 0.54 0.52 0.52 0.49 0.48 0.45 0.44 0.44 0.41 0.42 0.45 0.42 0.42 0.41 0.40 0.36
0.77 0.70 0.67 0.67 0.68 0.70 0.69 0.66 0.66 0.67 0.67 0.68 0.68 0.67 0.64 0.58 0.54 0.52 0.54 0.54 0.52 0.50 0.51 0.50 0.52 0.52 0.53 0.52 0.51 0.49 0.46 0.46 0.45 0.45 0.46 0.46 0.46 0.42 0.42 0.41 0.40 0.38 0.37
0.70 0.70 0.70 0.72 0.72 0.70 0.69 0.73 0.73 0.73 0.71 0.71 0.70 0.70 0.68 0.68 0.61 0.57 0.56 0.59 0.58 0.58 0.57 0.57 0.55 0.55 0.55 0.52 0.52 0.52 0.51 0.47 0.45 0.43 0.43 0.43 0.44 0.42 0.42 0.41 0.41 0.40 0.39
0.72 0.74 0.76 0.76 0.75 0.76 0.78 0.81 0.83 0.81 0.79 0.78 0.73 0.69 0.69 0.69 0.68 0.65 0.62 0.60 0.60 0.61 0.61 0.62 0.59 0.58 0.63 0.63 0.60 0.55 0.50 0.48 0.46 0.45 0.43 0.42 0.42 0.42 0.42 0.40 0.39 0.38 0.38
0.82 0.81 0.78 0.78 0.79 0.82 0.84 0.82 0.82 0.84 0.82 0.81 0.80 0.75 0.74 0.75 0.76 0.74 0.71 0.71 0.65 0.68 0.69 0.68 0.65 0.70 0.64 0.63 0.66 0.67 0.61 0.57 0.56 0.52 0.51 0.50 0.49 0.47 0.44 0.39 0.35 0.33 0.36
0.88 0.84 0.84 0.84 0.85 0.84 0.83 0.83 0.82 0.81 0.82 0.85 0.86 0.83 0.86 0.86 0.82 0.79 0.75 0.73 0.74 0.75 0.74 0.79 0.77 0.78 0.73 0.72 0.73 0.76 0.75 0.70 0.69 0.65 0.60 0.55 0.53 0.50 0.51 0.50 0.45 0.38 0.34
0.90 0.89 0.88 0.87 0.85 0.85 0.82 0.80 0.82 0.82 0.81 0.77 0.78 0.86 0.80 0.71 0.68 0.67 0.68 0.68 0.69 0.69 0.67 0.68 0.67 0.67 0.65 0.65 0.64 0.70 0.72 0.69 0.73 0.79 0.74 0.63 0.60 0.59 0.57 0.54 0.54 0.50 0.47
Wind_Speed
6 5 3 1 3 4 7 9 10 11 11 10 11 12 13 13 13 13 13 12 11 9 6 4 2 3 5 7 8 9 10 12 12 13 12 12 13 13 13 13 13 13 13
7 6 5 1 2 4 6 8 9 10 10 10 10 11 12 13 13 13 13 13 13 11 9 7 5 3 1 2 4 6 8 8 9 9 11 13 13 13 13 13 13 12 12
8 6 4 1 2 3 5 7 8 9 10 10 10 10 11 11 12 12 12 13 13 12 11 10 7 5 3 2 2 3 4 6 8 9 10 11 11 11 10 11 10 11 11
5 5 4 1 2 3 5 7 7 8 8 9 9 9 9 10 10 11 12 12 12 11 10 9 8 6 5 4 3 3 3 4 4 5 6 7 8 9 10 10 11 11 11
5 5 4 2 2 3 4 5 6 7 8 8 8 7 7 8 8 8 9 9 10 11 10 10 9 7 6 5 4 5 5 6 6 7 8 8 9 11 12 12 11 11 12
4 5 3 1 1 3 4 4 5 6 7 7 7 6 6 6 7 7 8 8 9 9 9 9 9 9 8 7 7 6 6 6 7 8 9 10 11 11 12 12 12 14 14
4 4 3 1 1 2 3 5 5 6 6 7 7 6 6 6 7 7 8 8 9 9 8 10 9 9 9 8 8 8 8 8 9 9 10 11 11 12 12 12 14 14 13
4 4 5 5 4 4 4 5 6 7 7 7 7 7 7 7 7 8 8 9 9 10 10 11 10 11 10 10 10 10 10 11 11 12 12 12 13 14 14 14 14 13 14
4 4 6 7 6 7 7 7 8 8 8 8 8 8 8 8 8 9 9 10 10 11 12 12 12 12 13 12 11 11 12 12 13 13 13 14 14 16 17 16 16 16 16
5 6 7 7 8 9 9 10 9 9 9 9 9 9 9 9 10 11 10 11 12 12 13 13 13 13 13 13 14 14 15 15 15 15 15 16 17 17 17 17 18 16 16
9 9 10 10 10 11 11 10 10 10 10 10 10 10 11 11 11 12 13 13 11 13 14 15 15 16 16 16 16 17 16 17 17 17 18 17 17 19 17 17 17 15 15
11 10 9 10 11 11 11 10 10 11 11 11 11 11 12 12 12 13 14 13 13 14 16 17 17 16 17 17 17 17 19 20 20 18 17 18 19 20 18 16 14 14 14
10 9 9 10 11 10 10 10 9 9 9 10 12 13 13 13 14 15 16 15 16 17 18 17 16 17 18 17 18 19 19 19 18 18 18 19 19 18 17 17 16 15 14
10 10 11 11 11 10 9 10 9 10 10 11 12 12 13 14 15 16 16 17 18 18 17 17 18 18 18 18 19 20 20 20 20 19 20 19 18 17 17 17 16 16 16
11 12 12 11 10 9 9 9 9 11 12 12 12 13 14 15 16 16 17 19 18 18 18 19 19 20 20 20 20 20 20 20 19 19 19 18 17 17 17 16 16 15 15
12 12 11 10 9 9 8 8 10 11 12 13 13 14 15 16 17 18 19 19 18 18 19 20 21 21 20 19 20 20 19 19 19 19 19 19 18 18 18 17 16 16 16
10 10 9 9 9 9 9 10 11 12 13 14 14 15 16 17 18 18 19 19 19 19 19 20 19 19 19 20 20 19 19 20 21 20 19 18 19 18 17 17 17 16 16
9 9 9 9 9 9 10 10 11 11 13 14 15 16 16 17 18 18 18 18 17 18 19 20 19 18 19 19 19 19 19 19 19 19 19 18 18 18 18 18 18 18 18
11 11 12 12 12 12 12 11 12 13 13 13 15 16 17 17 17 17 17 16 17 18 19 19 18 19 19 19 18 19 20 20 20 21 21 20 19 19 19 19 19 20 20
13 11 11 11 11 11 11 13 13 13 14 14 15 15 15 15 15 15 15 15 17 17 18 17 17 17 18 18 19 20 19 19 18 18 17 15 16 17 17 18 18 18 18
12 11 11 12 13 12 13 14 15 15 15 15 16 16 15 16 16 16 17 16 16 16 16 16 17 18 19 19 18 19 19 20 20 19 18 18 18 18 19 19 19 21 20
12 13 13 11 12 13 14 15 17 16 17 17 16 16 16 17 17 18 17 17 17 17 17 18 19 19 20 21 21 21 21 21 21 20 19 21 21 21 21 21 22 23 23
14 14 13 13 13 14 15 16 16 16 16 16 16 16 16 17 18 18 18 18 18 19 20 22 23 22 23 23 23 23 24 23 22 22 22 21 21 22 23 24 25 26 26
12 12 13 13 14 14 15 17 16 16 17 16 16 16 17 19 21 21 21 20 20 21 22 22 22 24 25 26 26 26 26 27 27 26 26 26 25 25 26 26 27 28 28
10 11 12 13 13 14 15 15 15 17 17 16 17 17 18 20 19 19 19 19 21 21 23 24 26 27 28 28 30 31 30 29 29 30 31 30 29 29 29 28 27 27 27
11 11 12 13 15 16 16 16 17 16 15 16 15 14 16 18 18 18 19 20 22 23 23 23 25 26 27 28 29 29 32 33 34 34 35 34 34 33 32 33 32 31 29
Wind_Direction
187 181 179 103 22 23 21 22 25 29 32 30 30 30 33 34 37 44 46 48 51 54 56 72 92 186 215 235 248 253 259 255 257 261 261 266 277 285 291 296 295 296 303
182 174 163 139 26 23 23 26 28 30 30 30 29 33 35 39 42 46 48 49 50 51 54 59 61 71 91 262 254 255 258 262 259 256 263 271 277 284 288 290 294 299 301
164 167 163 135 30 24 25 27 29 29 30 31 33 35 38 41 45 47 49 48 49 49 50 51 50 47 33 354 325 301 283 276 274 269 272 274 276 283 293 295 296 298 298
149 159 155 131 55 40 31 27 27 26 25 27 31 35 38 41 44 45 44 42 40 38 37 35 31 27 22 17 0 335 309 305 303 294 288 285 285 285 293 294 298 298 302
143 146 138 109 61 31 18 21 21 20 17 17 20 25 29 29 26 25 25 27 28 29 29 27 22 21 14 360 340 325 314 307 301 297 294 292 291 290 292 292 295 296 301
160 159 149 119 24 6 9 9 5 4 5 5 5 5 5 5 2 5 8 9 7 9 13 13 11 9 0 353 345 334 315 309 306 300 297 296 295 292 290 288 288 290 293
180 181 191 225 301 335 347 349 346 345 346 353 353 350 347 345 346 348 348 350 351 357 358 355 356 352 346 338 335 331 326 321 312 305 304 301 297 295 292 293 294 295 294
216 220 244 254 280 294 313 327 323 324 325 330 335 335 334 332 333 333 337 338 339 338 335 335 339 337 333 332 329 325 320 316 311 309 307 305 302 299 296 296 296 295 293
221 267 272 265 277 281 292 306 313 309 309 312 318 322 323 323 325 322 324 328 327 328 326 322 320 325 319 317 318 317 315 315 312 309 305 304 304 303 295 294 294 292 294
281 308 300 298 284 282 290 291 298 302 301 302 308 311 314 313 313 317 314 318 320 321 324 319 317 314 316 313 308 309 307 305 305 304 303 301 303 305 300 296 295 286 287
292 298 305 302 298 285 294 289 291 291 294 299 301 302 307 304 306 308 313 310 309 316 320 321 315 311 307 306 305 305 303 302 302 300 299 296 300 304 304 297 295 291 284
286 296 304 306 301 295 288 288 292 287 282 292 294 296 298 302 304 308 312 309 305 308 311 314 311 310 309 306 304 303 302 300 299 297 296 297 298 298 297 298 296 291 288
282 289 301 307 306 303 289 287 288 295 293 295 296 291 291 294 298 302 305 306 306 306 308 309 309 308 308 306 305 304 302 304 301 298 298 297 297 294 291 290 287 286 287
277 280 291 298 301 300 295 291 288 293 297 299 297 297 296 299 301 302 302 303 305 305 305 307 308 307 307 305 305 304 302 300 298 298 298 296 293 291 289 285 284 282 283
271 276 283 288 292 292 294 293 292 294 295 294 295 296 297 299 299 300 299 303 302 301 302 305 306 305 304 304 304 305 303 300 299 298 297 297 292 289 288 286 281 283 279
271 272 275 277 281 284 288 295 302 301 302 301 300 299 299 299 299 299 299 300 300 300 299 303 304 303 304 303 302 303 302 301 300 299 296 292 289 288 284 285 283 280 280
265 263 266 270 274 278 286 293 298 302 303 302 301 301 299 298 300 300 299 298 297 298 298 303 304 304 305 305 304 302 300 300 299 297 294 293 289 287 285 284 284 282 285
257 258 262 266 273 280 288 294 299 304 305 303 303 302 302 302 301 300 300 299 299 299 300 302 301 305 305 304 303 303 303 304 302 298 296 292 290 287 285 286 282 283 282
258 259 265 269 274 278 282 288 295 301 306 306 307 308 307 305 305 304 302 297 300 303 304 300 298 304 303 303 303 303 304 303 300 297 294 288 286 285 283 285 287 283 282
263 259 267 271 275 281 281 285 286 292 298 302 304 308 312 310 309 309 307 303 301 303 307 309 304 303 303 303 303 303 303 305 305 301 300 300 288 289 287 287 285 285 284
264 261 267 277 279 280 286 291 290 291 292 294 298 301 307 311 308 308 304 303 304 306 308 308 306 306 305 303 304 305 304 302 303 297 296 292 292 291 286 285 286 284 284
259 266 273 269 280 283 290 296 295 295 295 292 294 296 300 306 307 306 306 298 298 299 300 305 308 306 306 303 301 302 301 302 300 298 294 293 290 288 290 288 285 283 282
265 272 265 273 277 284 291 296 298 300 303 301 294 294 297 302 304 305 308 308 303 298 298 301 302 302 302 301 299 298 299 300 298 295 293 293 292 289 289 289 287 285 282
264 266 270 273 281 288 291 297 298 296 299 302 296 295 297 302 302 302 297 305 303 302 305 300 303 303 305 299 298 297 298 294 292 291 290 289 290 290 291 290 290 285 282
267 270 275 281 286 292 295 296 295 297 297 294 296 298 299 308 308 305 307 306 307 307 307 305 305 305 306 305 301 293 293 294 293 289 287 284 285 288 287 289 292 290 286
272 278 282 288 291 291 293 295 295 297 297 303 302 298 307 310 312 310 308 307 306 308 309 308 310 310 309 307 308 302 299 298 292 288 288 284 282 284 284 285 285 286 285